Location: Belloy
(55.7522°N, 118.2333°W)
Time: 23:22:03
(UTC+00:00)

Envisat - Pass Details

Date: 07 December 2021
Orbit: 764 x 766 km, 98.2° (Epoch: 27 January)

Event Time Altitude Azimuth Distance (km) Brightness Sun altitude
Rises 01:38:51 0° 223° (SW) 3,227 7.2 -17.8°
Reaches altitude 10° 01:42:30 10° 250° (WSW) 2,308 6.7 -18.3°
Maximum altitude 01:44:50 13° 278° (W) 2,102 6.3 -18.6°
Drops below altitude 10° 01:47:11 10° 306° (NW) 2,316 6.0 -18.9°
Sets 01:50:53 0° 333° (NNW) 3,249 6.4 -19.4°
